Volver al catálogo

CubeBel-2

EU11S

ActivoRadioaficionadoSSO
NORAD 57175·PAYLOAD·🇧🇾 Belarus

Lanzado Jun 27, 2023 desde Vostochny Cosmodrome

Loading…

Próximos Pases (próximas 24 horas)

TLE

ActualizadoSource: AMSAT

Época: Sep 14, 2026, 12:18 UTC

1 57175U 23091K   26257.51318666  .00010084  00000-0  33796-3 0  9992
2 57175  97.4956 321.6116 0010154 151.2949 208.8853 15.31072605177963

Sigue CubeBel-2 en tiempo real con AllMySat

Download on the App Store